This is the latest recevied weather packets stored in our database for station/object SR9NCI. If no packets are shown the sender has not sent any weather packets the latest 1 day(s).
| Time | Temp. | Humidity | Pressure | Rain* | Wind** | Luminosity | Snow |
|---|---|---|---|---|---|---|---|
| 1777987878 | 26.67° C | - | 0 hPa | - | 5.81 m/s, 163° | - | - |
| 1777987636 | 26.67° C | - | 0 hPa | - | 5.36 m/s, 160° | - | - |
| 1777987394 | 26.67° C | - | 0 hPa | - | 4.02 m/s, 185° | - | - |
| 1777987146 | 26.11° C | - | 0 hPa | - | 6.71 m/s, 194° | - | - |
| 1777986904 | 27.22° C | - | 0 hPa | - | 8.49 m/s, 171° | - | - |
| 1777986662 | 27.22° C | - | 0 hPa | - | 8.94 m/s, 159° | - | - |
| 1777986421 | 27.78° C | - | 0 hPa | - | 7.15 m/s, 138° | - | - |
| 1777986185 | 27.22° C | - | 0 hPa | - | 8.94 m/s, 151° | - | - |
| 1777985938 | 27.78° C | - | 0 hPa | - | 6.26 m/s, 162° | - | - |
| 1777985695 | 27.78° C | - | 0 hPa | - | 6.71 m/s, 157° | - | - |
| 1777985454 | 28.33° C | - | 0 hPa | - | 5.36 m/s, 160° | - | - |
| 1777985213 | 27.78° C | - | 0 hPa | - | 8.05 m/s, 175° | - | - |
| 1777984971 | 27.78° C | - | 0 hPa | - | 6.71 m/s, 177° | - | - |
| 1777984723 | 27.78° C | - | 0 hPa | - | 6.71 m/s, 154° | - | - |
| 1777984480 | 27.78° C | - | 0 hPa | - | 8.05 m/s, 175° | - | - |
| 1777984239 | 27.78° C | - | 0 hPa | - | 8.94 m/s, 160° | - | - |
| 1777983998 | 28.33° C | - | 0 hPa | - | 6.71 m/s, 161° | - | - |
| 1777983756 | 27.78° C | - | 0 hPa | - | 7.15 m/s, 178° | - | - |
| 1777983514 | 27.78° C | - | 0 hPa | - | 8.94 m/s, 165° | - | - |
| 1777983272 | 27.22° C | - | 0 hPa | - | 10.73 m/s, 169° | - | - |
| 1777983031 | 27.78° C | - | 0 hPa | - | 6.71 m/s, 185° | - | - |
| 1777982790 | 27.22° C | - | 0 hPa | - | 4.92 m/s, 141° | - | - |
| 1777982547 | 27.78° C | - | 0 hPa | - | 5.36 m/s, 154° | - | - |
| 1777982299 | 26.67° C | - | 0 hPa | - | 4.02 m/s, 175° | - | - |
| 1777982057 | 26.11° C | - | 0 hPa | - | 5.36 m/s, 180° | - | - |
* Rain since midnight (hover to see other rain measurements)
** Current wind speed in m/s (hover to see current wind gust speed)